CAPE
1344 1729 1929 1659 1637 1894 1802 1917 1522 1546 1103 887 1112 1757 1726 1691 1399 1174 1131 962 1205 659 410 304 221 195 532 897 746 226 143 189 286 407 495 754 595 641 709 565 640 145 560
1287 1709 2084 2181 1932 2019 1923 2065 2012 2084 1813 1671 1463 1653 1727 1532 1382 1398 1171 842 518 353 330 339 114 37 83 364 581 294 261 315 206 286 341 480 628 655 721 609 803 570 612
1552 1733 1759 2242 2063 2112 2072 1939 2020 2214 2091 1761 1172 972 1016 1139 918 795 717 600 439 383 451 205 137 94 53 23 171 132 223 247 247 252 129 418 442 628 563 681 924 790 277
1591 1766 1747 2248 2109 1957 1820 1770 2017 1983 1905 1744 1577 920 746 716 834 884 869 655 570 838 454 242 212 210 192 117 12 50 224 208 130 41 79 257 390 561 533 551 431 304 191
1510 1683 1863 2062 2004 1549 1710 1686 1593 1669 1730 1700 1722 1599 1104 854 897 886 955 1103 1179 932 1020 423 421 421 330 344 123 63 201 81 1 11 93 84 360 557 410 372 311 277 375
1276 1342 1783 1972 1832 1752 1532 1621 1580 1649 1562 1668 1586 1553 1374 1169 1191 1268 1460 1350 1320 1282 1117 686 721 769 660 691 238 126 106 14 0 0 22 113 136 469 613 555 595 635 695
1311 1464 1753 2029 1795 1795 1635 1591 1633 1614 1551 1472 1341 1424 1447 1272 1201 1309 1382 1622 1405 1279 1168 853 622 448 540 593 426 268 48 0 0 4 0 0 164 332 501 424 461 729 636
1030 1154 1521 1641 1822 1784 1695 1662 1669 1581 1541 1467 1369 1297 1209 1267 1190 1055 1184 1481 1308 1201 1199 962 712 420 135 436 410 238 5 0 0 2 2 0 5 368 504 283 444 561 543
342 456 461 893 1158 1184 1194 1131 1233 1393 1364 1443 1301 1169 1084 1128 1103 1147 1030 1136 1079 1192 1239 1115 893 691 230 215 448 193 0 0 48 105 105 228 106 315 658 352 689 696 669
0 0 0 0 354 550 646 738 804 843 829 908 892 804 779 612 777 871 984 972 1087 1019 1169 1208 1037 876 525 445 417 38 0 0 0 172 225 233 241 503 696 630 722 695 754
0 0 0 0 0 0 0 14 197 23 7 41 50 90 458 710 646 711 633 670 781 981 884 985 1063 838 618 405 250 6 0 0 0 139 244 19 363 446 514 528 514 404 705
0 0 0 0 0 0 0 0 0 0 0 0 0 0 2 205 403 261 194 245 481 701 719 876 795 709 430 235 182 0 0 0 0 97 199 36 414 456 286 613 821 891 729
0 0 0 0 0 0 0 0 0 0 0 0 0 0 0 0 29 271 352 415 625 505 967 815 798 780 710 358 190 63 0 0 0 8 80 34 402 494 392 539 606 631 582
0 0 0 0 0 0 0 0 0 0 0 0 0 0 0 0 0 7 73 246 340 578 819 771 867 764 704 558 217 102 14 0 0 0 23 0 97 484 455 492 537 553 419
0 0 0 0 0 0 0 0 0 0 0 0 0 0 0 0 0 0 5 113 259 338 554 741 705 690 760 674 500 214 164 75 0 0 0 0 0 243 523 435 350 395 322
0 0 0 0 0 0 0 0 0 0 0 0 0 0 0 0 0 0 0 48 152 198 464 635 629 655 717 685 635 560 316 195 148 50 0 1 0 8 397 553 548 337 467
0 0 0 0 0 0 0 3 0 0 0 0 0 0 0 0 0 0 0 0 146 267 382 454 515 362 339 110 133 543 576 432 222 152 66 4 0 0 14 438 582 685 560
0 0 0 0 0 0 0 0 3 1 0 0 0 0 0 0 0 0 0 0 0 5 286 415 153 279 178 76 21 25 123 483 417 229 64 52 3 0 0 3 282 692 566
0 0 0 0 0 0 0 0 0 0 2 5 2 0 0 0 0 0 0 0 0 0 2 130 77 83 175 110 42 25 1 23 282 186 143 13 0 0 10 0 0 3 236
0 0 0 0 0 0 0 0 0 0 0 1 0 0 2 2 0 0 0 0 0 0 0 1 2 34 34 47 21 35 29 1 90 135 154 53 3 0 0 0 0 0 3
0 0 0 0 0 0 0 0 0 0 0 0 0 0 0 0 0 2 1 0 0 0 0 0 0 0 0 4 2 4 15 6 0 37 117 116 71 14 0 2 6 172 120
0 0 0 0 0 0 0 0 0 0 0 0 0 0 0 0 0 4 3 3 0 2 0 0 1 1 2 1 3 5 0 0 1 2 3 14 44 42 8 0 1 6 174
0 0 0 0 0 0 0 0 0 0 0 0 0 0 0 0 0 0 0 4 5 4 6 5 1 6 4 3 5 0 1 0 0 0 2 2 2 8 17 16 5 0 32
0 0 0 0 0 0 0 0 0 0 0 0 0 0 0 0 0 0 0 0 4 7 12 4 1 0 7 6 4 4 3 0 1 0 0 0 2 1 2 4 1 0 1
0 0 0 0 0 0 0 0 0 0 0 0 0 0 0 0 0 0 0 0 0 4 13 17 6 0 1 7 1 2 4 11 12 24 3 0 0 0 0 1 4 1 5
0 0 0 0 0 0 0 0 0 0 0 0 0 0 1 1 0 0 0 0 0 0 2 22 32 10 2 1 0 0 2 0 1 13 14 8 0 0 0 0 0 0 0
CIN
0 0 0 -1 -3 -1 0 0 0 0 -6 -11 -1 0 0 0 0 0 0 0 0 -5 -21 -26 -28 -16 0 0 0 -18 -69 -63 -31 -25 -22 -2 -5 -2 0 -2 -3 -58 -1
-7 0 -1 0 -1 0 0 -1 -1 0 0 0 0 0 0 0 0 0 0 0 -9 -19 -17 -16 -66 -124 -58 0 0 -7 -30 -27 -68 -49 -48 -25 -5 -6 -6 -7 -1 -4 -1
0 0 0 0 -2 -2 -2 -1 -2 0 0 0 0 -1 -1 0 0 0 0 -3 -8 -9 -3 -18 -32 -70 -110 -160 -33 -56 -44 -51 -62 -69 -128 -34 -32 -9 -16 -12 0 0 -38
0 0 0 -1 -1 -3 -6 -8 -1 0 -1 0 0 -1 -5 -6 -1 0 0 0 -1 0 0 -5 -4 -6 -7 -49 -183 -148 -52 -65 -116 -205 -145 -61 -33 -17 -24 -16 -31 -51 -75
-2 0 0 -1 -1 -8 -5 -6 -6 -6 -4 -2 -1 0 -1 -1 0 0 0 0 -1 -1 0 0 -1 0 0 -2 -50 -121 -60 -151 -81 -196 -134 -125 -31 -11 -35 -41 -49 -54 -29
-11 -8 0 -1 -1 -2 -9 -6 -3 0 0 0 -1 -1 -1 -2 0 0 -1 -2 -1 0 0 0 0 0 0 0 -9 -64 -109 -50 0 0 -211 -99 -69 -16 -9 -21 -5 -1 0
-10 -2 0 -2 -5 -2 -3 -2 -1 0 0 0 -1 0 0 -1 -2 -3 -2 -1 -1 -1 0 -1 -1 -4 -2 -1 0 -12 -128 0 0 -49 0 0 -57 -17 -10 -17 -10 0 -2
-30 -22 -3 -5 -2 -2 -3 -2 -1 0 0 -1 -1 -1 -1 -1 -2 -4 -4 -1 -1 0 0 -1 -1 -8 -23 -2 0 -23 -46 0 0 -29 -50 0 -104 -15 -1 -21 -6 -2 -3
-82 -71 -77 -46 -31 -28 -21 -17 -7 -1 -2 -1 -2 -3 -3 -3 -2 -1 -3 -2 -3 -1 -1 -2 -3 -2 -12 -7 -3 -46 0 0 -146 -110 -112 -47 -112 -20 0 -2 0 0 0
0 0 0 0 -94 -73 -59 -49 -36 -23 -18 -11 -10 -10 -10 -17 -11 -7 -4 -5 -2 -3 -2 -1 -3 -3 -4 0 -1 -120 0 0 0 -73 -51 -33 -38 -8 0 -1 -6 -9 -3
0 0 0 0 0 0 0 -48 -91 -102 -133 -89 -78 -74 -38 -11 -13 -9 -15 -17 -11 -5 -7 -3 -2 -4 -7 -5 -13 -85 0 0 0 -67 -29 -162 -13 -5 -8 -4 -8 -7 -5
0 0 0 0 0 0 0 0 0 0 0 0 0 0 -13 -66 -32 -55 -83 -65 -28 -14 -15 -5 -6 -9 -13 -15 -23 -96 0 0 0 -67 -25 -109 -10 -19 -25 -5 -4 -1 -3
0 0 0 0 0 0 0 0 0 0 0 0 0 0 0 0 -95 -43 -39 -38 -18 -24 -4 -8 -1 0 0 -15 -30 -67 0 0 0 -44 -64 -105 -13 -2 -2 -6 -8 -7 -6
0 0 0 0 0 0 0 0 0 0 0 0 0 0 0 0 0 -113 -74 -39 -33 -18 -8 -11 -7 -5 -4 -6 -25 -51 -120 0 0 0 -42 0 -52 -3 0 -4 -9 -14 -13
0 0 0 0 0 0 0 0 0 0 0 0 0 0 0 0 0 0 -12 -53 -39 -32 -15 -7 -16 -13 -4 -6 -8 -24 -39 -61 0 0 0 0 0 -27 -7 -1 -3 -6 -9
0 0 0 0 0 0 0 0 0 0 0 0 0 0 0 0 0 0 0 -79 -46 -43 -24 -15 -20 -10 -5 -5 -6 -4 -13 -30 -44 -81 0 -67 0 -58 -19 -6 -3 -2 -2
0 0 0 0 0 0 0 0 0 0 0 0 0 0 0 0 0 0 0 -10 -81 -35 -20 -19 -25 -33 -21 -89 -69 -7 -6 -3 -19 -45 -80 -193 0 0 -83 -15 -13 -2 -1
0 0 0 0 0 0 0 0 0 0 0 0 0 0 0 0 0 0 0 0 0 -234 -44 -19 -100 -39 -42 -108 -182 -185 -66 -1 -4 -15 -44 -63 -152 0 0 -99 -36 -7 -7
0 0 0 0 0 0 0 0 0 0 0 0 0 0 0 0 0 0 0 0 0 0 -46 -99 -130 -116 -41 -53 -133 -167 -1 -162 -6 -14 -24 -60 0 0 -86 0 0 -62 -31
0 0 0 0 0 0 0 0 0 0 0 0 0 0 0 0 0 0 0 0 0 0 0 0 0 -172 -143 -100 -210 -163 -165 0 -72 -28 -21 -78 -115 0 0 0 -9 0 -115
0 0 0 0 0 0 0 0 0 0 0 0 0 0 0 0 0 0 0 0 0 0 0 0 0 0 0 0 0 0 -286 -87 0 -150 -41 -37 -66 -152 0 -92 -144 -66 -61
0 0 0 0 0 0 0 0 0 0 0 0 0 0 0 0 0 0 0 0 0 0 0 0 0 0 0 0 0 0 0 0 0 0 0 -137 -104 -84 -155 0 -84 -112 -73
0 0 0 0 0 0 0 0 0 0 0 0 0 0 0 0 0 0 0 0 0 0 -7 -17 -15 -12 -2 0 0 0 0 0 0 0 0 0 0 -82 -141 -139 -151 -14 -71
0 0 0 0 0 0 0 0 0 0 0 0 0 0 0 0 0 0 0 0 0 -2 -3 -19 -38 -9 -13 -2 0 0 0 0 0 0 0 0 -2 -2 0 0 0 0 -68
0 0 0 0 0 0 0 0 0 0 0 0 0 0 0 0 0 0 0 0 0 0 0 -4 -25 -3 -40 -3 0 0 0 0 -5 0 0 0 0 0 0 0 0 -5 -91
0 0 0 0 0 0 0 0 0 0 0 0 0 0 0 0 0 0 0 0 0 0 0 -1 -2 -39 -37 -36 -1 0 0 0 0 0 0 0 0 0 0 0 0 0 0
Wind_Speed
3 3 4 5 8 10 10 11 12 10 10 11 11 12 12 13 13 12 12 12 11 11 12 12 12 11 11 13 13 14 13 13 12 11 9 10 11 13 13 14 12 15 15
6 5 5 6 7 10 10 10 11 10 9 9 10 10 11 10 10 10 11 10 10 10 11 12 12 12 11 11 13 13 13 12 11 10 10 8 8 11 12 12 10 15 15
7 5 5 6 7 8 9 9 9 9 9 8 9 9 9 8 8 8 8 9 9 9 11 11 11 12 12 11 11 12 12 11 9 8 8 6 6 10 12 13 13 14 14
6 5 5 6 6 7 7 8 9 8 9 8 8 8 9 8 8 7 8 8 7 9 11 10 10 10 11 11 11 11 11 10 9 7 4 5 5 10 13 15 14 14 14
6 5 5 5 6 6 6 5 5 5 5 6 6 7 7 7 7 6 6 7 6 8 9 10 9 9 9 9 10 10 9 9 8 5 5 4 4 10 15 15 14 14 12
5 4 5 5 6 6 6 6 4 4 3 3 2 3 5 6 7 6 4 4 7 8 9 9 9 8 7 6 9 9 8 6 4 4 3 4 4 4 11 14 12 12 12
3 3 2 3 3 4 4 5 4 4 3 2 1 2 3 3 4 6 6 6 6 7 8 9 9 8 7 5 8 9 7 4 2 3 2 0 1 1 10 12 11 11 12
3 3 3 3 4 4 4 3 3 3 2 2 1 1 2 3 3 2 4 5 6 7 7 8 9 8 7 6 8 8 6 4 2 2 3 3 3 5 8 9 11 11 12
5 5 5 4 4 4 3 3 4 4 4 4 4 4 3 4 3 4 4 5 6 7 7 7 7 8 7 7 7 7 5 4 2 2 1 1 3 9 10 12 13 13 13
6 6 5 5 4 3 3 3 3 4 5 5 5 6 6 6 5 4 5 5 6 7 7 7 7 7 7 8 7 6 5 3 1 3 2 1 4 5 14 15 12 12 15
12 11 9 11 9 6 5 4 4 4 4 5 4 4 3 2 3 4 4 5 6 8 8 8 8 7 7 7 7 7 5 2 3 2 2 2 3 2 10 10 10 10 9
19 18 15 12 9 9 7 5 4 3 3 3 3 4 3 4 3 4 4 5 6 7 6 9 9 8 7 4 4 6 3 3 3 3 2 2 3 5 1 10 10 9 9
13 13 17 16 14 9 6 4 3 3 3 3 4 4 4 3 3 3 3 3 3 3 4 5 7 6 8 5 4 4 4 4 3 3 3 4 3 8 11 9 9 10 9
17 17 17 17 15 12 5 5 4 2 3 4 4 5 3 3 3 4 3 3 3 3 5 4 4 7 8 8 7 6 6 4 3 3 4 5 5 5 8 9 9 9 9
18 18 18 16 16 14 10 5 4 5 4 3 3 5 5 4 4 4 4 4 4 3 4 4 5 5 7 7 7 7 7 7 6 3 3 5 6 7 8 9 11 11 11
18 19 18 18 17 14 12 10 5 4 5 4 4 3 4 4 5 4 5 4 4 4 4 4 5 5 6 6 8 8 9 8 8 7 5 5 8 8 9 9 10 11 12
16 18 18 18 18 17 14 12 8 6 5 5 5 6 6 4 5 6 5 5 5 4 5 4 5 4 4 4 7 7 8 9 8 8 7 5 6 9 9 12 12 12 12
17 19 18 16 19 17 16 11 9 9 8 7 6 6 7 7 5 5 5 6 5 4 4 3 3 3 4 4 5 5 6 7 9 9 7 7 6 5 8 11 11 13 13
17 18 19 19 19 18 16 12 11 12 10 10 10 9 12 10 8 5 5 6 6 4 4 4 4 5 4 4 4 5 4 7 9 7 10 10 8 7 6 9 11 12 14
17 17 18 16 19 18 12 11 9 9 9 9 10 11 15 12 12 9 7 6 6 5 4 4 5 5 6 6 5 4 5 5 7 8 9 9 9 10 9 9 7 9 15
17 18 20 18 18 15 13 13 10 11 9 9 9 14 14 14 14 12 8 9 6 6 7 6 3 5 5 4 5 7 7 6 6 8 7 8 10 10 10 7 5 6 6
16 17 17 18 18 15 11 10 8 10 7 7 9 11 13 14 14 12 11 10 9 7 8 7 7 3 4 4 4 4 4 3 7 9 7 7 10 7 9 9 8 8 8
16 16 16 17 16 14 16 10 10 7 8 8 10 10 12 13 13 12 13 11 11 9 8 9 7 9 6 5 9 4 3 5 2 1 7 7 10 7 6 8 9 9 10
13 13 14 15 15 14 14 12 14 10 11 10 10 10 12 14 13 11 12 12 12 9 9 8 7 9 8 8 4 6 7 2 3 2 2 4 4 5 7 5 6 7 7
12 13 13 13 14 14 14 13 10 11 10 10 10 15 14 13 14 13 10 11 11 9 11 11 9 9 9 8 7 4 8 5 6 6 7 5 3 4 4 5 5 5 6
11 12 13 15 15 15 14 14 13 13 13 12 12 11 10 10 11 12 13 10 10 9 12 14 13 11 9 9 8 9 8 5 7 8 8 8 7 5 4 4 5 5 5
Wind_Direction
186 152 119 126 125 126 120 114 109 105 104 104 105 107 108 106 106 106 102 96 95 98 101 102 101 97 92 92 98 94 92 89 85 81 76 86 103 104 102 102 115 103 99
150 148 115 127 126 126 124 115 120 112 107 107 108 101 103 100 98 102 105 103 103 105 107 107 106 103 97 92 93 97 96 90 85 75 69 73 105 114 113 113 110 106 104
132 127 112 111 124 129 129 121 105 115 120 117 117 116 113 113 111 112 110 114 115 116 110 108 108 111 107 103 103 106 103 93 84 77 78 89 119 135 138 120 111 112 106
124 122 116 101 111 131 129 133 131 128 124 129 127 122 122 126 125 122 122 124 121 123 114 113 109 110 112 114 112 113 109 94 78 73 95 82 105 152 134 122 119 118 118
130 129 125 101 91 91 105 109 111 118 124 126 123 133 133 134 134 130 124 123 109 126 122 123 122 122 119 121 121 117 114 99 80 80 84 77 71 152 135 130 130 128 129
131 127 129 107 98 87 78 80 90 93 97 99 107 144 158 155 154 141 105 147 133 134 138 138 134 127 129 133 133 124 120 97 92 90 79 54 62 123 141 124 122 138 131
102 84 90 95 105 99 91 80 79 77 82 94 151 174 187 210 184 153 131 134 143 151 157 159 149 142 135 140 148 133 119 78 2 198 154 80 328 124 127 129 140 133 133
84 39 25 36 52 49 52 55 55 49 34 30 349 274 261 229 235 211 173 163 165 172 176 177 165 156 146 137 153 140 130 88 97 124 177 202 238 262 159 158 158 153 141
45 32 12 7 8 20 19 19 16 11 9 357 357 352 328 312 286 243 231 211 205 192 198 195 187 168 158 156 148 142 146 112 124 137 143 239 232 249 199 182 181 167 155
22 12 358 345 344 341 333 340 357 357 355 359 3 2 353 343 338 302 274 241 230 219 206 201 203 188 174 166 163 161 161 129 144 175 204 232 283 273 230 190 195 174 166
7 2 352 345 340 335 325 328 334 0 357 349 343 351 320 302 305 306 309 293 273 241 223 215 209 203 180 175 175 175 170 210 227 222 200 251 292 301 174 192 194 183 178
356 350 356 348 338 332 323 322 314 327 333 326 320 312 296 284 280 287 287 307 296 281 258 227 218 200 187 196 188 182 204 206 228 239 242 267 262 128 270 157 160 166 172
349 352 354 347 335 320 310 311 310 316 322 318 310 317 312 297 284 276 277 268 271 272 256 252 227 214 204 196 202 201 202 208 219 239 248 271 253 179 188 178 164 167 160
5 360 353 349 345 333 307 299 292 275 318 316 317 307 303 295 287 281 274 274 265 254 260 237 246 229 219 209 208 209 211 209 210 218 227 273 259 240 196 188 182 176 176
11 3 360 357 353 344 332 319 316 322 319 303 309 322 317 305 295 296 284 275 267 257 248 255 244 236 230 223 216 219 220 219 216 218 227 217 253 243 244 219 204 201 200
9 7 2 6 1 357 2 350 336 329 325 323 321 319 321 314 312 309 304 297 283 258 245 239 239 234 244 239 236 221 231 233 231 226 220 214 216 229 235 236 234 221 214
7 4 6 7 7 11 4 3 359 354 349 345 340 337 333 333 322 316 309 303 302 303 270 249 246 232 241 237 242 245 233 236 239 240 237 231 220 214 225 237 233 231 223
10 12 6 6 7 9 10 4 5 12 10 4 353 346 343 336 333 318 310 305 314 303 289 269 258 240 222 226 244 249 254 246 240 239 243 245 234 226 213 223 242 242 233
12 11 10 9 9 4 4 6 11 9 12 12 12 7 354 344 337 324 309 300 302 292 282 281 268 258 253 238 238 239 235 253 249 244 238 235 239 240 233 223 222 241 234
16 13 13 14 10 6 4 0 6 20 21 17 10 3 358 356 347 334 317 304 302 287 265 245 257 259 261 265 265 244 241 242 252 239 241 239 236 235 237 240 241 235 225
17 15 15 10 11 10 5 3 358 1 4 10 9 5 0 350 342 343 333 321 305 278 273 259 250 246 252 248 265 261 257 237 236 242 236 233 234 234 235 232 222 232 227
14 11 11 11 10 12 6 1 351 327 354 340 353 351 355 351 345 341 336 324 311 294 269 257 240 235 249 211 226 248 276 232 231 236 241 243 242 238 234 233 231 232 236
12 8 5 6 4 7 3 354 353 348 350 354 346 337 340 340 345 342 340 327 313 295 273 254 235 226 237 226 221 222 204 243 300 183 236 242 244 244 248 248 242 241 239
4 1 359 0 358 1 358 359 4 355 340 329 322 320 325 326 330 337 341 334 318 299 275 255 243 229 224 236 221 238 242 215 227 274 220 224 206 226 245 248 250 251 250
355 354 350 352 352 352 353 352 348 342 330 319 322 323 324 323 324 325 331 334 327 322 289 265 244 229 225 232 218 196 229 226 240 249 263 255 225 203 223 239 233 233 233
348 351 348 348 344 344 343 342 338 330 324 324 323 319 318 320 318 316 318 317 317 314 324 289 257 233 221 224 224 217 211 198 214 215 234 244 260 260 239 232 240 239 253